www.pogodaiklimat.ru

Погода и климат >> Архив погоды >> Бразилия >> Мату-Гросу >> Кампу-Нову-ду-Паресис


ПОГОДА в Кампу-Нову-ду-Паресисе

  • Прогноз погоды в Кампу-Нову-ду-Паресисе
  • Монитор погоды в Кампу-Нову-ду-Паресисе

АРХИВ ПОГОДЫ в Кампу-Нову-ду-Паресисе

Время (UTC), дата Ветер
(напр.,м/с)
 
Видим.   Явления Облачность Т
(С)
Тd
(С)
f
(%)
Тe
(С)
Тes
(С)
Комфортность P
(гПа)
Po
(гПа)
Тmin
(С)
Tmax
(С)
R
(мм)
R24
(мм)
S
(см)
19 13.08 ЮЗ 2
{5}
н/о н/о +33.2 -17.8 3 +28 +28 жарко 1011.3 953.7
20 13.08 ЮЗ 3
{5}
н/о н/о +31.0 -19.2 3 +26 +26 жарко 1011.9 953.9
16 14.08 ЮЗ 3
{7}
н/о н/о +24.6 -23.5 3 +21 +21 комфорт 1017.8 958.2
17 14.08 ЮЗ 3
{7}
н/о н/о +26.6 -22.2 3 +22 +22 комфорт 1016.4 957.3
18 14.08 ЮЗ 3
{6}
н/о н/о +26.8 -22.0 3 +23 +23 комфорт 1015.2 956.2
19 14.08 ЮЗ 2
{5}
н/о н/о +26.8 -22.1 3 +23 +23 комфорт 1014.6 955.6
20 14.08 ЮЗ 2
{5}
н/о н/о +26.9 -22.0 3 +23 +23 комфорт 1014.0 955.1
15 15.08 ЮЗ 2
{4}
н/о н/о +29.9 -20.0 3 +25 +25 комфорт 1015.2 956.8
16 15.08 ЮЗ 2
{4}
н/о н/о +31.7 -18.8 3 +27 +27 жарко 1014.0 956.0
17 15.08 ЮЗ 2
{6}
н/о н/о +32.0 -18.6 3 +27 +27 жарко 1012.6 954.7
18 15.08 ЮЗ 2
{5}
н/о н/о +32.8 -18.1 3 +28 +28 жарко 1011.7 954.0
19 15.08 ЮЗ 2
{5}
н/о н/о +32.8 -18.0 3 +28 +28 жарко 1011.1 953.5
20 15.08 ЮЗ 2
{4}
н/о н/о +32.0 -18.5 3 +27 +27 жарко 1011.2 953.4
21 15.08 ЮЗ 1
{4}
н/о н/о +30.8 -19.4 3 +26 +26 жарко 1011.9 953.8
16 16.08 ЮЗ 2
{5}
н/о н/о +33.8 -17.4 3 +29 +29 жарко 1012.2 954.7
17 16.08 ЮЗ 2
{4}
н/о н/о +33.1 -17.8 3 +28 +28 жарко 1011.5 953.9
18 16.08 ЮЗ 2
{5}
н/о н/о +33.8 -17.4 3 +29 +29 жарко 1010.2 952.8
19 16.08 ЮЗ 2
{4}
н/о н/о +33.9 -17.3 3 +29 +29 жарко 1009.6 952.2
20 16.08 ЮЗ 1
{4}
н/о н/о +33.6 -17.5 3 +29 +29 жарко 1009.4 952.0
21 16.08 ЮЗ 2
{3}
н/о н/о +32.4 -18.3 3 +28 +28 жарко 1009.9 952.3
15 17.08 ЮЗ 3
{7}
н/о н/о +32.0 -18.6 3 +27 +27 жарко 1011.9 954.1
16 17.08 ЮЗ 3
{6}
н/о н/о +32.5 -18.2 3 +28 +28 жарко 1010.6 952.9
17 17.08 ЮЗ 3
{6}
н/о н/о +33.2 -17.8 3 +28 +28 жарко 1009.5 952.0
18 17.08 ЮЗ 2
{6}
н/о н/о +32.8 -18.0 3 +28 +28 жарко 1008.5 951.0
19 17.08 ЮЗ 2
{5}
н/о н/о +33.1 -17.9 3 +28 +28 жарко 1007.7 950.3
20 17.08 ЮЗ 2
{4}
н/о н/о +32.9 -18.0 3 +28 +28 жарко 1007.8 950.4
16 18.08 ЮЗ 2
{4}
н/о н/о +31.9 -18.7 3 +27 +27 жарко 1012.8 954.9
19 18.08 ЮЗ 2
{4}
н/о н/о +31.7 -18.8 3 +27 +27 жарко 1009.8 952.0
19 19.08 ЮЗ 2
{3}
н/о н/о +32.2 -18.4 3 +27 +27 жарко 1009.6 951.9
20 19.08 ЮЗ 3
{4}
н/о н/о +30.0 -19.9 3 +25 +25 комфорт 1009.8 951.7
14 20.08 ЮЗ 2
{4}
н/о н/о +27.5 -21.5 3 +23 +23 комфорт 1016.0 957.1
15 20.08 ЮЗ 2
{3}
н/о н/о +30.5 -19.6 3 +26 +26 жарко 1014.8 956.5
18 20.08 ЮЗ 2
{4}
н/о н/о +32.4 -18.3 3 +28 +28 жарко 1011.6 953.9
19 20.08 ЮЗ 2
{4}
н/о н/о +31.8 -18.7 3 +27 +27 жарко 1011.2 953.4

 

Местоположение метеостанции Кампу-Нову-ду-Паресис (Мату-Гросу, Бразилия): широта -13.78 долгота -57.83 высота над уровнем моря 572 м.

В архиве по умолчанию представлена погода в Кампу-Нову-ду-Паресисе за последнюю неделю. Архивные данные за месяц целиком и за предыдущие месяцы, начиная с января 2011 года, Вы можете получить, выбрав интересующий диапазон дат из раскрывающегося списка и нажав кнопку "Ввод!".


*Определитесь, кто Вы:
робот инопланетянин человек

Внимание! Время в таблицах - всемирное. Для получения местного времени необходимо прибавить поправку, которая равна -3 ч.

Смотрите также архив погоды в соседних городах и на ближайших метеорологических станциях:

Погода в Тангара-да-Серре (Мату-Гросу, Бразилия) (106 км)
Погода в Нова-Маринге (Мату-Гросу, Бразилия) (115 км)
Погода в Сан-Хосе-ду-Рио-Кларо (Мату-Гросу, Бразилия) (131 км)
Погода в Ново-Мундо (Мату-Гросу, Бразилия) (147 км)
Погода в Салту-ду-Сеу (Мату-Гросу, Бразилия) (154 км)
Погода в Диамантину (Мату-Гросу, Бразилия) (164 км)
Погода в Порто-Эстреле (Мату-Гросу, Бразилия) (184 км)
Погода в Комодоро (Мату-Гросу, Бразилия) (210 км)
Погода в Глеба Селеста (Мату-Гросу, Бразилия) (227 км)
Погода в Понтис-и-Ласерде (Мату-Гросу, Бразилия) (231 км)

Пояснения к столбцам:

Ветер - указаны скорость ветра в м/с - средняя за 10 мин, порывы в срок и между сроками (в фигурных скобках) и направление, откуда дует ветер: С - северный, СВ - северо-восточный, В - восточный, ЮВ - юго-восточный, Ю - южный, ЮЗ - юго-западный, З - западный, СЗ - северо-западный.
Видимость - горизонтальная дальность видимости в метрах или километрах. При видимости от 1 до 10 км при отсутствии осадков обычно наблюдается дымка, при ухудшении видимости до 1 км и менее - туман. В сухую погоду видимость может ухудшаться дымом, пылью или мглою.
Явления - указаны атмосферные явления, наблюдавшиеся в срок или в последний час перед сроком; фигурными скобками обозначены явления, наблюдавшиеся между сроками (за 1-3 часа до срока); квадратными скобками обозначены град или гололедные отложения с указанием их диаметра в мм.
Облачность - указаны через наклонную черту общая и нижняя облачность в баллах и высота нижней границы облаков в метрах; квадратными скобками обозначены формы облаков: Ci - перистые, Cs - перисто-слоистые, Cc - перисто-кучевые, Ac - высококучевые, As - высокослоистые, Sc - слоисто-кучевые, Ns - слоисто-дождевые, Cu - кучевые, Cb - кучево-дождевые. Подробнее классификацию облаков см. в Атласе облаков (PDF).
T - Температура воздуха - температура, измеренная на высоте 2 м над землей.
Td - Температура точки росы - температура, при понижении до которой содержащийся в воздухе водяной пар достигнет насыщения.
f - Относительная влажность воздуха - влажноcть воздуха, измеренная на высоте 2 м над землей.
Te - Эффективная температура - температура, которую ощущает одетый по сезону человек в тени. Характеристика душности погоды. При расчете учитывается влияние влажности воздуха и скорости ветра на теплоощущения человека.
Tes - Эффективная температура на солнце - температура, которую ощущает человек, с поправкой на солнечный нагрев. Характеристика знойности погоды. Зависит от высоты солнца над горизонтом, облачности и скорости ветра. Ночью, в пасмурную погоду, а также при ветре 12 м/с и более поправка равна нулю.
P - Атмосферное давление - приведенное к уровню моря атмосферное давление.
Po - Атмосферное давление - измеренное на уровне метеостанции атмосферное давление.
Tmin - Минимальная температура - минимум температуры воздуха на высоте 2 м над землей.
Tmax - Максимальная температура - максимум температуры воздуха на высоте 2 м над землей.
R - Количество осадков - Количество выпавших осадков за период времени, мм. При наведении курсора мыши на число - период времени, за который выпало указанное количество осадков.
R24 - Количество осадков - Количество выпавших осадков за 24 часа, мм.
S - Снежный покров - Высота снежного покрова, см. При наведении курсора мыши на число - состояние снежного покрова и степень покрытия местности в баллах.